Regional Weather Roundup
Issued by NWS

Home | Current Version | Previous Version | Graphics & Text | Print | Product List | Glossary Off
Versions: 1 2 3 4 5 6 7 8 9 10 11 12 13 14 15 16 17 18 19 20 21 22 23 24 25 26 27 28 29 30 31 32 33 34 35 36 37 38 39 40 41 42 43 44 45 46 47 48 49 50

000
ASUS43 KDMX 201707
RWRIA

WEATHER ROUNDUP FOR IOWA
NATIONAL WEATHER SERVICE DES MOINES IA
1100 AM CST THU NOV 20 2014

NOTE: "FAIR" INDICATES FEW OR NO CLOUDS BELOW 12,000 FEET WITH NO
SIGNIFICANT WEATHER AND/OR OBSTRUCTIONS TO VISIBILITY.

* - THESE STATIONS ARE NOT NWS STATIONS...THUS NOT UNDER NWS
QUALITY CONTROL.  THEY ALSO DO NOT REPORT WEATHER SUCH
AS PRECIPITATION OR FOG.

IAZ001>003-012>014-020>022-031>034-043>046-201800-
   NORTHWEST IOWA

CITY           SKY/WX    TMP DP  RH WIND       PRES   REMARKS
CARROLL *      SUNNY     23  12  63 NW13G18   30.21R WCI  11
CHEROKEE *     SUNNY     19  12  73 W8        30.21S WCI   9
DENISON *      SUNNY     23  12  63 NW13      30.20S WCI  11
LE MARS *      SUNNY     21  12  68 NW10      30.23R WCI  10
ORANGE CITY *  SUNNY     19  10  68 NW10      30.19S WCI   8
SHELDON *      SUNNY     14   7  73 NW8       30.18S WCI   3
SIOUX CITY     CLOUDY    25  13  60 NW9       30.23S WCI  15
SPENCER        SUNNY     15   8  73 W9        30.19R WCI   3
STORM LAKE *   SUNNY     18  10  73 W16       30.19S WCI   3
$$

IAZ055>058-069>071-079>083-090>094-201800-
   SOUTHWEST IOWA

CITY           SKY/WX    TMP DP  RH WIND       PRES   REMARKS
ATLANTIC *     CLOUDY    23  14  68 NW12      30.23S WCI  12
AUDUBON *      SUNNY     25  10  54 NW7       30.21R WCI  17
CLARINDA *     PTSUNNY   27  16  63 NW7G13    30.27S WCI  19
COUNCIL BLFS * CLOUDY    25  16  68 N9        30.22S WCI  15
CRESTON *      SUNNY     23  14  68 NW14      30.22S WCI  11
HARLAN  *      PTSUNNY   23  14  68 NW9       30.26S WCI  13
LAMONI         MOSUNNY   26  15  63 NW12      30.22S WCI  16
RED OAK *      PTSUNNY   27  16  63 VRB7      30.25S WCI  19
SHENANDOAH *   CLOUDY    27  16  63 N6        30.27R WCI  20
$$

IAZ047>049-059>061-072>074-084-201800-
   CENTRAL IOWA

CITY           SKY/WX    TMP DP  RH WIND       PRES   REMARKS
AMES           SUNNY     22  11  62 W10       30.21R WCI  11
ANKENY *       SUNNY     23  12  63 W12       30.22S WCI  12
CHARITON *     SUNNY     27  14  59 W12       30.21S WCI  16
DES MOINES     MOSUNNY   26  12  55 NW15      30.22S WCI  14
GRINNELL*      SUNNY     23  14  68 W13       30.20S WCI  11
KNOXVILLE *    SUNNY     27  12  54 NW16G23   30.20S WCI  14
MARSHALLTOWN     N/A     20  12  71 MISG      30.19R
PELLA *        SUNNY     27  12  54 NW14G20   30.22F WCI  15
PERRY *          N/A     23  16  74 NW10      30.22S WCI  12
$$

IAZ004>006-015-016-023>025-035-036-201800-
   NORTH CENTRAL IOWA

CITY           SKY/WX    TMP DP  RH WIND       PRES   REMARKS
ALGONA *       SUNNY     14   7  73 NW8       30.19R WCI   3
CLARION *      SUNNY     16   9  73 NW10      30.19R WCI   3
ESTHERVILLE    SUNNY     13   7  77 NW10      30.17R WCI   0
FORT DODGE *   SUNNY     19  10  68 W9        30.21R WCI   9
MASON CITY     SUNNY     15   8  73 NW12      30.18R WCI   2
FOREST CITY *  SUNNY     18  10  73 NW9       30.16R WCI   6
IOWA FALLS *     N/A     18  10  73 NW8       30.19R HAZE    WCI   7
$$

IAZ007>011-017>019-026>030-037>042-050>054-066-201800-
   NORTHEAST IOWA

CITY           SKY/WX    TMP DP  RH WIND       PRES   REMARKS
CEDAR RAPIDS   SUNNY     21  13  71 W13       30.17S WCI   9
CHARLES CITY * SUNNY     18   5  57 NW14      30.16R WCI   4
CLINTON *      SUNNY     25  10  54 W18       30.17S WCI  11
DECORAH *      SUNNY     18   3  53 NW10G18   30.10S WCI   6
DUBUQUE        SUNNY     19   8  62 NW17      30.12R WCI   4
MONTICELLO *   SUNNY     21   9  58 NW15      30.15S WCI   8
OELWEIN *      SUNNY     16   9  73 W12       30.16R WCI   3
WATERLOO       SUNNY     20  10  65 NW14      30.17S WCI   7
$$

IAZ064-065-067-068-078-201800-
   EAST CENTRAL IOWA

CITY           SKY/WX    TMP DP  RH WIND       PRES   REMARKS
DAVENPORT      SUNNY     25  11  55 NW18      30.17R WCI  11
IOWA CITY      SUNNY     24  12  60 W12       30.21R WCI  13
MT. PLEASANT * SUNNY     27  14  59 W15       30.21S WCI  15
MUSCATINE *    SUNNY     27  12  54 NW16      30.21S WCI  14
$$

IAZ062-063-075>077-085>089-095>099-201800-
   SOUTHEAST IOWA

CITY           SKY/WX    TMP DP  RH WIND       PRES   REMARKS
BURLINGTON     SUNNY     28  13  53 NW16G22   30.20S WCI  16
FAIRFIELD *    SUNNY     25  14  63 W14G21    30.21S WCI  13
FORT MADISON * SUNNY     28  16  59 W17       30.22R WCI  16
KEOKUK *       SUNNY     30  14  51 NW13      30.21S WCI  20
OSKALOOSA *      N/A     25  14  63 NW15G23   30.21F WCI  12
CENTERVILLE *  SUNNY     28  14  54 W10       30.23S WCI  19
OTTUMWA        SUNNY     26  13  57 NW17      30.21R WCI  13
WASHINGTON *   SUNNY     25  16  68 W14       30.20S WCI  13
$$

ABBREVIATIONS USED IN REMARKS
   TC - TEMPERATURES IN CELSIUS
  WCI - WIND CHILL INDEX
   HX - HEAT INDEX
  VSB - VISIBILITY
$$




USA.gov is the U.S. government's official web portal to all federal, state and local government web resources and services.